Location: T�bingen+AIT
(48.5342°N, 9.0700°E)
Time: 15:08:19
(UTC+01:00)

SPOT 1/Viking Rocket - Pass Details

Date: 14 September 2017
Orbit: 778 x 794 km, 98.6° (Epoch: 17 November)

Event Time Altitude Azimuth Distance (km) Brightness Sun altitude
Exits shadow 21:50:14 33° 72° (ENE) 1,309 4.3 -21.4°
Maximum altitude 21:50:35 33° 64° (ENE) 1,300 4.4 -21.4°
Drops below altitude 10° 21:55:11 10° 2° (N) 2,354 6.4 -22.1°
Sets 21:57:41 0° 353° (N) 3,284 7.4 -22.4°
